Date String (YYYY-MM-DD hh:mm:ss) UTC,Instrument flags,Ambient pressure (hPa),Sample flow (lpm),Bypass flow (lpm),Sample temperature (°C),Ambient temperature (°C),ASC tube jacket temperature (°C),LED temperature (°C),Box temperature (°C),Sample RH (%),Span deviation,Mass concentration (μg/m³),Mass concentration (μg/m³),Mass concentration (μg/m³)
DateTimeUTC,F1_M11,P_M11,Q1_M11,Q2_M11,T1_M11,T2_M11,T3_M11,T4_M11,T5_M11,U1_M11,ZSPAN_M11,X0_M11,X2_M11,X1_M11
2022-06-05 06:00:00,,0820.4,5.00,0.00,29.8,28.7,00.0,38.7,31.7,19.3,0000.0,0010.45,0003.96,0003.14
2022-06-05 06:01:00,,0820.4,5.00,0.00,29.8,28.7,00.0,38.7,31.7,19.5,0000.0,0010.55,0003.97,0003.12
2022-06-05 06:02:00,,0820.5,5.01,0.00,29.8,28.7,00.0,38.7,31.7,19.3,0000.0,0010.68,0004.00,0003.10
2022-06-05 06:03:00,,0820.5,4.99,0.00,29.8,28.7,00.0,38.7,31.7,19.3,0000.0,0010.68,0003.98,0003.09
2022-06-05 06:04:00,,0820.5,5.00,0.00,29.8,28.7,00.0,38.7,31.7,19.2,0000.0,0010.87,0003.98,0003.07
2022-06-05 06:05:00,,0820.5,4.99,0.00,29.8,28.7,00.0,38.7,31.7,19.1,0000.0,0011.05,0004.00,0003.07
2022-06-05 06:06:00,,0820.5,5.00,0.00,29.8,28.7,00.0,38.7,31.7,19.1,0000.0,0011.75,0004.06,0003.09
2022-06-05 06:07:00,,0820.5,5.00,0.00,29.8,28.7,00.0,38.7,31.7,19.1,0000.0,0011.83,0004.09,0003.08
2022-06-05 06:08:00,,0820.5,5.01,0.00,29.8,28.7,00.0,38.7,31.7,19.0,0000.0,0010.91,0004.10,0003.08
2022-06-05 06:09:00,,0820.5,4.99,0.00,29.8,28.7,00.0,38.7,31.7,19.0,0000.0,0011.05,0004.12,0003.08
2022-06-05 06:10:00,,0820.4,5.01,0.00,29.9,28.7,00.0,38.7,31.7,19.0,0000.0,0011.37,0004.13,0003.07
2022-06-05 06:11:00,,0820.5,5.01,0.00,29.9,28.7,00.0,38.7,31.7,18.9,0000.0,0010.63,0004.12,0003.07
2022-06-05 06:12:00,,0820.4,5.00,0.00,29.9,28.7,00.0,38.7,31.7,19.0,0000.0,0009.94,0004.09,0003.09
2022-06-05 06:13:00,,0820.3,5.00,0.00,29.9,28.7,00.0,38.7,31.7,19.0,0000.0,0009.74,0004.07,0003.11
2022-06-05 06:14:00,,0820.4,5.00,0.00,29.9,28.7,00.0,38.7,31.7,19.3,0000.0,0009.72,0004.05,0003.10
2022-06-05 06:15:00,,0820.3,5.00,0.00,29.9,28.7,00.0,38.7,31.7,18.7,0000.0,0009.65,0004.04,0003.11
2022-06-05 06:16:00,,0820.3,4.99,0.00,29.9,28.7,00.0,38.8,31.8,18.7,0000.0,0009.45,0004.01,0003.11
2022-06-05 06:17:00,,0820.3,5.02,0.00,29.9,28.7,00.0,38.8,31.7,18.7,0000.0,0008.93,0003.95,0003.09
2022-06-05 06:18:00,,0820.5,5.00,0.00,29.9,28.7,00.0,38.8,31.8,18.8,0000.0,0009.86,0003.90,0003.07
2022-06-05 06:19:00,,0820.4,5.00,0.00,29.9,28.8,00.0,38.8,31.8,19.3,0000.0,0010.37,0003.89,0003.08
2022-06-05 06:20:00,,0820.3,5.01,0.00,29.9,28.8,00.0,38.8,31.8,19.0,0000.0,0010.74,0003.90,0003.07
2022-06-05 06:21:00,,0820.3,5.00,0.00,29.9,28.8,00.0,38.8,31.8,19.1,0000.0,0010.27,0003.85,0003.06
2022-06-05 06:22:00,,0820.3,4.99,0.00,29.9,28.8,00.0,38.8,31.7,18.6,0000.0,0010.31,0003.85,0003.05
2022-06-05 06:23:00,,0820.4,5.01,0.00,29.9,28.8,00.0,38.8,31.7,18.5,0000.0,0010.50,0003.87,0003.03
2022-06-05 06:24:00,,0820.3,5.01,0.00,29.9,28.8,00.0,38.8,31.8,18.4,0000.0,0010.53,0003.86,0003.01
2022-06-05 06:25:00,,0820.3,5.00,0.00,29.9,28.8,00.0,38.8,31.7,18.4,0000.0,0010.47,0003.84,0003.02
2022-06-05 06:26:00,,0820.2,4.99,0.00,29.9,28.8,00.0,38.8,31.7,18.5,0000.0,0010.49,0003.86,0003.02
2022-06-05 06:27:00,,0820.3,5.00,0.00,29.9,28.8,00.0,38.8,31.8,18.4,0000.0,0010.57,0003.86,0003.03
2022-06-05 06:28:00,,0820.2,5.00,0.00,29.9,28.8,00.0,38.8,31.8,18.3,0000.0,0010.44,0003.90,0003.03
2022-06-05 06:29:00,,0820.3,5.00,0.00,29.9,28.8,00.0,38.8,31.8,18.3,0000.0,0010.08,0003.94,0003.03
2022-06-05 06:30:00,,0820.2,5.01,0.00,29.9,28.8,00.0,38.8,31.8,18.4,0000.0,0009.70,0003.94,0003.04
2022-06-05 06:31:00,,0820.2,5.00,0.00,30.0,28.8,00.0,38.8,31.8,18.4,0000.0,0009.33,0003.96,0003.06
2022-06-05 06:32:00,,0820.2,5.00,0.00,30.0,28.8,00.0,38.8,31.8,18.4,0000.0,0010.35,0004.01,0003.09
2022-06-05 06:33:00,,0820.3,5.00,0.00,30.0,28.8,00.0,38.8,31.8,18.4,0000.0,0010.91,0004.01,0003.10
2022-06-05 06:34:00,,0820.3,5.00,0.00,30.0,28.8,00.0,38.8,31.8,18.4,0000.0,0011.19,0003.97,0003.11
2022-06-05 06:35:00,,0820.3,5.00,0.00,30.0,28.8,00.0,38.8,31.8,18.5,0000.0,0011.23,0003.96,0003.13
2022-06-05 06:36:00,,0820.3,4.99,0.00,30.0,28.8,00.0,38.9,31.8,18.4,0000.0,0011.28,0004.00,0003.14
2022-06-05 06:37:00,,0820.3,4.99,0.00,30.0,28.8,00.0,38.9,31.8,18.4,0000.0,0011.58,0003.98,0003.14
2022-06-05 06:38:00,,0820.3,5.00,0.00,30.0,28.8,00.0,38.9,31.8,18.3,0000.0,0012.20,0004.01,0003.14
2022-06-05 06:39:00,,0820.3,5.00,0.00,30.0,28.8,00.0,38.9,31.8,18.4,0000.0,0012.27,0004.01,0003.15
2022-06-05 06:40:00,,0820.3,5.01,0.00,30.0,28.8,00.0,38.9,31.8,18.4,0000.0,0011.61,0003.99,0003.17
2022-06-05 06:41:00,,0820.3,5.00,0.00,30.0,28.8,00.0,38.9,31.8,18.6,0000.0,0011.43,0003.99,0003.16
2022-06-05 06:42:00,,0820.3,4.99,0.00,30.0,28.8,00.0,38.9,31.8,18.5,0000.0,0011.81,0003.97,0003.16
2022-06-05 06:43:00,,0820.3,5.00,0.00,30.0,28.8,00.0,38.9,31.8,18.4,0000.0,0011.12,0003.94,0003.15
2022-06-05 06:44:00,,0820.3,5.00,0.00,30.0,28.8,00.0,38.9,31.8,18.3,0000.0,0010.97,0003.97,0003.15
2022-06-05 06:45:00,,0820.3,4.99,0.00,30.0,28.8,00.0,38.9,31.8,18.4,0000.0,0010.89,0003.97,0003.15
2022-06-05 06:46:00,,0820.3,5.00,0.00,30.0,28.8,00.0,38.9,31.9,18.5,0000.0,0011.45,0004.01,0003.15
2022-06-05 06:47:00,,0820.3,5.00,0.00,30.0,28.8,00.0,38.9,31.9,18.3,0000.0,0011.67,0004.06,0003.15
2022-06-05 06:48:00,,0820.3,5.00,0.00,30.0,28.8,00.0,38.9,31.9,18.2,0000.0,0012.30,0004.10,0003.15
2022-06-05 06:49:00,,0820.3,5.00,0.00,30.0,28.8,00.0,38.9,31.9,18.2,0000.0,0012.07,0004.11,0003.14
2022-06-05 06:50:00,,0820.3,5.01,0.00,30.0,28.8,00.0,38.9,31.9,18.3,0000.0,0012.17,0004.10,0003.14
2022-06-05 06:51:00,,0820.2,4.99,0.00,30.0,28.8,00.0,38.9,31.9,18.3,0000.0,0012.47,0004.12,0003.14
2022-06-05 06:52:00,,0820.3,4.99,0.00,30.0,28.8,00.0,38.9,31.9,18.2,0000.0,0012.51,0004.15,0003.14
2022-06-05 06:53:00,,0820.3,5.01,0.00,30.0,28.8,00.0,38.9,31.9,18.1,0000.0,0012.36,0004.14,0003.14
2022-06-05 06:54:00,,0820.2,5.00,0.00,30.0,28.8,00.0,38.9,31.9,18.1,0000.0,0011.68,0004.12,0003.14
2022-06-05 06:55:00,,0820.2,5.00,0.00,30.0,28.8,00.0,38.9,31.9,18.1,0000.0,0011.55,0004.08,0003.13
2022-06-05 06:56:00,,0820.2,4.99,0.00,30.0,28.8,00.0,38.9,31.9,18.0,0000.0,0010.95,0004.06,0003.13
2022-06-05 06:57:00,,0820.2,5.01,0.00,30.0,28.8,00.0,38.9,31.9,17.9,0000.0,0010.28,0004.06,0003.13
2022-06-05 06:58:00,,0820.2,5.00,0.00,30.0,28.9,00.0,38.9,31.9,17.9,0000.0,0010.18,0004.00,0003.12
2022-06-05 06:59:00,,0820.2,4.99,0.00,30.0,28.9,00.0,38.9,31.9,18.0,0000.0,0009.53,0003.95,0003.12
